Location: Hopkins Observatory
(42.6965°N, 73.1843°W)
Time: 01:18:45
(UTC-04:00)

UOSAT-12 - Visible Passes

Search period start: 20 April 2018 00:00
Search period end: 30 April 2018 00:00
Orbit: 592 x 661 km, 64.6° (Epoch: 19 April)

Date Brightness Start Highest point End Pass type
(mag) Time Alt. Az. Time Alt. Az. Time Alt. Az.
20 Apr 9.9 04:22:31 10° SE 04:24:25 12° ESE 04:26:20 10° E visible
21 Apr 9.0 04:39:57 10° S 04:43:48 27° ESE 04:47:44 10° ENE visible
22 Apr 7.7 04:58:49 10° SSW 05:03:20 57° ESE 05:07:58 10° NE visible
23 Apr 9.6 03:41:01 10° SE 03:43:33 15° ESE 03:46:08 10° ENE visible
23 Apr 7.2 05:18:27 10° SW 05:23:04 69° NW 05:27:48 10° NNE visible
24 Apr 8.6 04:00:14 17° SSE 04:02:58 31° ESE 04:07:06 10° NE visible
25 Apr 7.4 04:19:46 23° SSW 04:22:33 67° ESE 04:27:14 10° NE visible
26 Apr 9.2 03:01:55 17° ESE 03:02:42 17° ESE 03:05:45 10° ENE visible
26 Apr 7.4 04:39:13 20° SW 04:42:19 59° NW 04:47:00 10° NNE visible
27 Apr 8.1 03:21:19 34° SE 03:22:08 36° ESE 03:26:28 10° NE visible
27 Apr 8.3 04:58:36 12° WSW 05:02:17 31° NW 05:06:30 10° NNE visible
28 Apr 7.1 03:40:39 52° SSW 03:41:45 79° ESE 03:46:30 10° NE visible
28 Apr 9.1 05:19:12 10° W 05:22:26 18° NW 05:25:43 10° N visible
29 Apr 9.2 02:22:38 19° E 02:22:38 19° E 02:25:16 10° ENE visible
29 Apr 7.6 03:59:55 34° WSW 04:01:34 51° NW 04:06:11 10° NNE visible
